This is the latest recevied weather packets stored in our database for station/object KE0TNI-13. If no packets are shown the sender has not sent any weather packets the latest 10 day(s).
| Time | Temp. | Humidity | Pressure | Rain* | Wind** | Luminosity | Snow |
|---|---|---|---|---|---|---|---|
| 1777704234 | -2.78° C | 79% | 1025.9 hPa | 0 mm | - | 0 W/m² | - |
| 1777703931 | -2.78° C | 78% | 1026.1 hPa | 0 mm | - | 0 W/m² | - |
| 1777703629 | -2.78° C | 78% | 1025.8 hPa | 0 mm | - | 0 W/m² | - |
| 1777703326 | -2.78° C | 78% | 1025.8 hPa | 0 mm | - | 0 W/m² | - |
| 1777703023 | -2.78° C | 79% | 1026.1 hPa | 0 mm | - | 0 W/m² | - |
| 1777702722 | -2.78° C | 78% | 1026.2 hPa | 0 mm | - | 0 W/m² | - |
| 1777702419 | -2.78° C | 79% | 1025.9 hPa | 0 mm | - | 0 W/m² | - |
| 1777702115 | -2.78° C | 79% | 1025.9 hPa | 0 mm | - | 0 W/m² | - |
| 1777701810 | -2.78° C | 79% | 1025.8 hPa | 0 mm | - | 0 W/m² | - |
| 1777701508 | -2.22° C | 80% | 1025.9 hPa | 0 mm | - | 0 W/m² | - |
| 1777701206 | -2.22° C | 80% | 1026.1 hPa | 0 mm | - | 0 W/m² | - |
| 1777700905 | -2.22° C | 79% | 1026.1 hPa | 0 mm | - | 0 W/m² | - |
| 1777700602 | -2.22° C | 79% | 1025.9 hPa | 0 mm | - | 0 W/m² | - |
| 1777700300 | -2.22° C | 77% | 1025.8 hPa | 0 mm | - | 0 W/m² | - |
| 1777699997 | -2.22° C | 77% | 1026.1 hPa | 0 mm | - | 0 W/m² | - |
| 1777699695 | -2.22° C | 77% | 1026.1 hPa | 0 mm | - | 0 W/m² | - |
| 1777699392 | -2.22° C | 77% | 1025.9 hPa | 0 mm | - | 0 W/m² | - |
| 1777699090 | -2.22° C | 79% | 1025.9 hPa | 0 mm | - | 0 W/m² | - |
| 1777698789 | -2.22° C | 75% | 1025.7 hPa | 0 mm | - | 0 W/m² | - |
| 1777698484 | -2.22° C | 76% | 1026.1 hPa | 0 mm | - | 0 W/m² | - |
| 1777698180 | -2.22° C | 76% | 1025.9 hPa | 0 mm | - | 0 W/m² | - |
| 1777697878 | -2.22° C | 76% | 1025.8 hPa | 0 mm | - | 0 W/m² | - |
| 1777697574 | -2.22° C | 75% | 1025.7 hPa | 0 mm | - | 0 W/m² | - |
| 1777697272 | -1.67° C | 77% | 1025.8 hPa | 0 mm | - | 0 W/m² | - |
| 1777696967 | -1.67° C | 77% | 1025.9 hPa | 0 mm | - | 0 W/m² | - |
* Rain latest hour (hover to see other rain measurements)
** Current wind speed in m/s (hover to see current wind gust speed)